Location: Armidale
(30.5016°S, 151.6662°E)
Time: 02:45:18
(UTC+10:00)

Hubble Space Telescope - Pass Details

Date: 10 August 2020
Orbit: 536 x 540 km, 28.5° (Epoch: 28 September)

Event Time Altitude Azimuth Distance (km) Brightness Sun altitude
Rises 19:55:16 0° 268° (W) 2,684 5.4 -32.6°
Reaches altitude 10° 19:57:36 10° 275° (W) 1,791 4.3 -33.1°
Enters shadow 19:58:47 18° 282° (WNW) 1,373 3.5 -33.4°
